Regional Weather Roundup
Issued by NWS

Home | Current Version | Previous Version | Text Only | Print | Product List | Glossary Off
Versions: 1 2 3 4 5 6 7 8 9 10 11 12 13 14 15 16 17 18 19 20 21 22 23 24 25 26 27 28 29 30 31 32 33 34 35 36 37 38 39 40 41 42 43 44 45 46 47 48 49 50

000
ASUS45 KPSR 172010
RWRAZ

ARIZONA REGIONAL HOURLY WEATHER ROUNDUP
NATIONAL WEATHER SERVICE PHOENIX AZ
100 PM MST THU APR 17 2014

NOTE: FAIR INDICATES FEW OR NO CLOUDS BELOW 12,000 FEET WITH NO
SIGNIFICANT WEATHER AND/OR OBSTRUCTIONS TO VISIBILITY.

AZZ001>003-036-172100-
NORTHWEST ARIZONA

CITY           SKY/WX    TMP DP  RH WIND       PRES   REMARKS
BULLHEAD CITY  SUNNY     90  23   9 S13G21    29.83F
KINGMAN        SUNNY     83  15   8 SW25G31   29.95F
$$

AZZ004>008-015-016-018-172100-
NORTH CENTRAL ARIZONA

CITY           SKY/WX    TMP DP  RH WIND       PRES   REMARKS
GRAND CANYON   SUNNY     68  17  14 NW10      30.12F
WILLIAMS       SUNNY     66  16  14 W12G18    30.20S
PRESCOTT       SUNNY     75  20  12 SE10G17   30.05F
FLAGSTAFF      SUNNY     66  20  17 S16G23    30.14F
PAYSON         SUNNY     73  19  13 VRB6G17   30.09F
PAGE           SUNNY     72  28  19 NE8       30.02F
$$

AZZ009>014-017-172100-
NORTHEAST ARIZONA

CITY           SKY/WX    TMP DP  RH WIND       PRES   REMARKS
WINSLOW        SUNNY     74  22  14 S6        30.07F
SAINT JOHNS    SUNNY     70  21  15 VRB3      30.10F
WINDOW ROCK    MOSUNNY   69  20  15 W10G17    30.13F
SHOW LOW       SUNNY     66  18  15 CALM      30.16S
$$

AZZ023-172100-
GREATER PHOENIX AREA

CITY           SKY/WX    TMP DP  RH WIND       PRES   REMARKS
PHOENIX        MOSUNNY   89  18   7 SW3       29.88F
BUCKEYE          N/A     84  23  10 SE3       29.89F
GLENDALE       MOSUNNY   88  21   8 SE5       29.90F
LUKE AFB       NOT AVBL
DEER VALLEY    SUNNY     84  17   8 VRB5      29.90F
SCOTTSDALE     SUNNY     85  22  10 SE6       29.92F
MESA-FALCON    SUNNY     86  21   9 S6        29.91F
MESA-GATEWAY   SUNNY     84  19   9 VRB3      29.92F
CHANDLER       MOSUNNY   86  21   9 VRB3      29.90F
$$

AZZ027-028-172100-
SOUTHWEST MARICOPA COUNTY AND PINAL COUNTY

CITY           SKY/WX    TMP DP  RH WIND       PRES   REMARKS
CASA GRANDE    SUNNY     86  27  11 CALM      29.91F
GILA BEND      CLEAR     91  21   8 VRB7      29.88F
$$

AZZ503-504-507>509-172100-
SOUTHEAST ARIZONA

CITY           SKY/WX    TMP DP  RH WIND       PRES   REMARKS
TUCSON         SUNNY     86  16   7 VRB7      29.95F
DAVIS-MONTHAN  SUNNY     85  20   9 W6        29.94F
RYAN FIELD       N/A     88  21   8 SE10      29.94F
NOGALES        SUNNY     84  19   9 VRB7      29.99F
SIERRA VISTA   SUNNY     79  18  10 SE9G20    30.05F
DOUGLAS        SUNNY     78  16   9 VRB6      30.04F
SAFFORD        SUNNY     82  15   8 VRB3      29.96F
$$

AZZ020-021-025-026-031-172100-
SOUTHWEST ARIZONA

CITY           SKY/WX    TMP DP  RH WIND       PRES   REMARKS
YUMA           PTSUNNY   89  30  12 S16G24    29.85F
$$

CAZ031-033-041-043-047-048-061-172100-
SOUTHERN CALIFORNIA

CITY           SKY/WX    TMP DP  RH WIND       PRES   REMARKS
DOWNTOWN L.A.  PTSUNNY   69  52  54 CALM      29.88F
L.A. AIRPORT   CLOUDY    68  52  56 W7        29.89F
SAN DIEGO      CLOUDY    64  52  64 S10       29.94S
BURBANK        PTSUNNY   69  52  54 S8        29.88F
ONTARIO        CLOUDY    73  50  44 SW7       29.88F
RIVERSIDE      PTSUNNY   72  51  47 MISG      29.88F
PALM SPRINGS   MOSUNNY   83  38  20 E6        29.87F
EL CENTRO NAS  PTSUNNY   83  56  39 CALM      29.83F
IMPERIAL       PTSUNNY   85  54  34 SE12      29.82F
BLYTHE         SUNNY     90  28  11 S14G22    29.84F
NEEDLES        SUNNY     92  12   5 SE8G17    29.84F
$$

NVZ020-UTZ003-172100-
SOUTHERN NEVADA-UTAH

CITY           SKY/WX    TMP DP  RH WIND       PRES   REMARKS
LAS VEGAS      MOSUNNY   84  23  10 CALM      29.84F
SALT LAKE CITY MOSUNNY   67  25  20 S18G25    29.99F
$$

NMZ009-TXZ055-172100-
NEW MEXICO-WEST TEXAS

CITY           SKY/WX    TMP DP  RH WIND       PRES   REMARKS
ALBUQUERQUE    PTSUNNY   64  24  21 VRB3      30.14F
EL PASO        SUNNY     77  19  11 N3        30.05F
$$


........................KEY........................
SKY/WX - SKY CONDITION/WEATHER
TMP    - TEMPERATURE IN FAHRENHEIT
DP     - DEW POINT IN FAHRENHEIT
RH     - RELATIVE HUMIDITY IN PERCENT
WIND   - DIRECTION AND SPEED IN MILES PER HOUR (MPH)
VRB    - VARIABLE WIND DIRECTION
PRES   - MEAN SEA LEVEL PRESSURE IN INCHES OF MERCURY
         F - FALLING PRESSURE   R - RISING PRESSURE
         S - STEADY PRESSURE
VSB    - VISIBILITY IN MILES
HX     - HEAT INDEX IN FAHRENHEIT
WCI    - WIND CHILL INDEX IN FAHRENHEIT
TC     - TEMPERATURE IN CELSIUS WHICH IS ALSO KNOWN AS
         TEMPERATURE IN CENTIGRADE
AFB    - AIR FORCE BASE
         LUKE AFB IS LUKE AIR FORCE BASE
         DAVIS-MONTHAN IS DAVIS-MONTHAN AIR FORCE BASE
NAS    - NAVAL AIR STATION
         EL CENTRO NAS IS EL CENTRO NAVAL AIR STATION
N/A    - NOT AVAILABLE



USA.gov is the U.S. government's official web portal to all federal, state and local government web resources and services.